FW1003 Weather Reports


Display with metric or nautical units.
time (UTC)temp
F
wind
direction
speed
MPH
gust
MPH
rain 1hr
in
rain 24hr
in
rain mn
in
humidity
%
barometer
mb
20260906124505 90 152 1.0 6.0 0.00 0.00 0.00 56 1013.6
20260906123005 91 296 1.0 6.0 0.00 0.00 0.00 55 1013.5
20260906121502 91 44 1.0 6.0 0.00 0.00 0.00 54 1013.6
20260906120001 92 131 2.0 8.0 0.00 0.00 0.00 54 1013.7
20260906114501 91 59 3.0 7.0 0.00 0.00 0.00 54 1013.6
20260906113101 92 77 2.0 6.0 0.00 0.00 0.00 54 1013.7
20260906111600 92 154 1.0 7.0 0.00 0.00 0.00 54 1013.8
20260906110059 92 255 2.0 7.0 0.00 0.00 0.00 54 1013.9
20260906104559 92 209 1.0 7.0 0.00 0.00 0.00 54 1013.7
20260906103057 92 165 2.0 8.0 0.00 0.00 0.00 54 1013.7
20260906101559 92 328 2.0 9.0 0.00 0.00 0.00 52 1013.9
20260906100053 92 213 1.0 7.0 0.00 0.00 0.00 54 1014.1
20260906094553 91 360 2.0 8.0 0.00 0.00 0.00 54 1014.0
20260906093057 92 157 1.0 7.0 0.00 0.00 0.00 55 1014.1
20260906091550 91 147 3.0 8.0 0.00 0.00 0.00 54 1014.1
20260906090049 91 186 2.0 12.0 0.00 0.00 0.00 53 1014.1
20260906084553 91 185 2.0 10.0 0.00 0.00 0.00 54 1014.1
20260906083048 91 170 3.0 9.0 0.00 0.00 0.00 54 1014.2
20260906081546 91 192 1.0 6.0 0.00 0.00 0.00 56 1014.2
20260906080052 90 186 4.0 10.0 0.00 0.00 0.00 56 1014.0
20260906074543 90 143 1.0 5.0 0.00 0.00 0.00 56 1014.2
20260906073037 90 171 2.0 9.0 0.00 0.00 0.00 58 1014.2
20260906071534 89 175 2.0 8.0 0.00 0.00 0.00 57 1014.3
20260906070031 89 177 3.0 9.0 0.00 0.00 0.00 56 1014.4
20260906064534 90 224 1.0 4.0 0.00 0.00 0.00 55 1014.3
20260906063028 90 158 1.0 4.0 0.00 0.00 0.00 57 1014.2
20260906061523 89 325 1.0 3.0 0.00 0.00 0.00 58 1014.3
20260906060023 87 183 1.0 4.0 0.00 0.00 0.00 60 1014.3
20260906054518 87 42 1.0 4.0 0.00 0.00 0.00 61 1014.1
20260906053020 86 96 0.0 3.0 0.00 0.00 0.00 64 1013.8
20260906051510 85 83 1.0 3.0 0.00 0.00 0.00 66 1013.8
20260906050006 83 43 0.0 0.0 0.00 0.00 0.00 69 1013.9
20260906044501 81 331 0.0 0.0 0.00 0.00 0.00 71 1014.0
20260906043057 80 331 0.0 0.0 0.00 0.00 0.00 74 1013.7
20260906041556 78 331 0.0 0.0 0.00 0.00 0.00 75 1013.9
20260906040051 76 331 0.0 0.0 0.00 0.00 0.00 75 1013.6
20260906034545 76 331 0.0 0.0 0.00 0.00 0.00 75 1013.5
20260906033044 76 331 0.0 0.0 0.00 0.00 0.00 75 1013.6
20260906031538 76 331 0.0 0.0 0.00 0.00 0.00 75 1013.5
20260906030037 75 331 0.0 0.0 0.00 0.00 0.00 74 1013.4
20260906024535 75 331 0.0 0.0 0.00 0.00 0.00 74 1013.4
20260906023042 76 331 0.0 0.0 0.00 0.00 0.00 74 1013.6
20260906021533 76 331 0.0 0.0 0.00 0.00 0.00 73 1013.5
20260906020033 76 331 0.0 0.0 0.00 0.00 0.00 73 1013.3
20260906014538 77 331 0.0 0.0 0.00 0.00 0.00 73 1013.3
20260906013030 77 331 0.0 0.0 0.00 0.00 0.00 74 1013.1
20260906011528 77 331 0.0 0.0 0.00 0.00 0.00 74 1013.4
20260906010028 77 331 0.0 0.0 0.00 0.00 0.00 74 1013.4
20260906004525 77 331 0.0 0.0 0.00 0.00 0.00 74 1013.3
20260906003025 77 331 0.0 0.0 0.00 0.00 0.00 74 1013.5
20260906001526 77 331 0.0 0.0 0.00 0.00 0.00 74 1013.5
20260906000023 76 331 0.0 2.0 0.00 0.00 0.00 73 1013.6
20260905234522 77 331 1.0 3.0 0.00 0.00 0.00 73 1013.6
20260905233022 77 331 0.0 2.0 0.00 0.00 0.00 73 1013.6
20260905231522 77 331 0.0 0.0 0.00 0.00 0.00 73 1013.7
20260905230021 77 331 0.0 0.0 0.00 0.00 0.00 72 1013.6
20260905224521 77 331 0.0 0.0 0.00 0.00 0.00 73 1013.5
20260905223021 77 331 0.0 0.0 0.00 0.00 0.00 72 1013.5
20260905221530 77 331 0.0 0.0 0.00 0.00 0.00 71 1013.7
20260905220117 78 331 0.0 0.0 0.00 0.00 0.00 71 1013.9
20260905214512 78 331 0.0 1.0 0.00 0.00 0.00 71 1014.0
20260905213009 78 331 0.0 2.0 0.00 0.00 0.00 72 1014.1
20260905211507 78 331 0.0 2.0 0.00 0.00 0.00 71 1014.3
20260905210009 78 331 0.0 2.0 0.00 0.00 0.00 71 1014.2
20260905204504 79 331 0.0 2.0 0.00 0.00 0.00 70 1014.3
20260905203004 79 331 0.0 2.0 0.00 0.00 0.00 70 1014.3
20260905201506 79 331 0.0 0.0 0.00 0.00 0.00 70 1014.3
20260905200004 80 331 0.0 0.0 0.00 0.00 0.00 69 1014.3
20260905194505 80 331 0.0 0.0 0.00 0.00 0.00 68 1014.3
20260905193008 81 331 0.0 0.0 0.00 0.00 0.00 68 1014.2
20260905191501 81 331 0.0 0.0 0.00 0.00 0.00 69 1014.3
20260905190002 82 331 0.0 0.0 0.00 0.00 0.00 68 1014.3
20260905184620 82 331 0.0 0.0 0.00 0.00 0.00 68 1014.4
20260905184501 82 331 0.0 0.0 0.00 0.00 0.00 68 1014.4
20260905183100 82 331 0.0 0.0 0.00 0.00 0.00 68 1014.5
20260905181559 82 331 0.0 0.0 0.00 0.00 0.00 67 1014.4
20260905181500 82 331 0.0 0.0 0.00 0.00 0.00 67 1014.3
20260905180058 82 331 0.0 0.0 0.00 0.00 0.00 67 1014.3
20260905174600 83 331 0.0 0.0 0.00 0.00 0.00 66 1014.3
20260905173058 83 331 0.0 0.0 0.00 0.00 0.00 65 1014.2
20260905171555 83 331 0.0 0.0 0.00 0.00 0.00 64 1014.1
20260905170059 84 331 0.0 0.0 0.00 0.00 0.00 64 1014.0
20260905164554 84 331 0.0 2.0 0.00 0.00 0.00 63 1013.7
20260905163054 84 331 0.0 2.0 0.00 0.00 0.00 63 1013.5
20260905161555 85 322 0.0 3.0 0.00 0.00 0.00 62 1013.4
20260905160052 85 309 0.0 1.0 0.00 0.00 0.00 62 1013.4
20260905154554 86 309 0.0 4.0 0.00 0.00 0.00 61 1013.4
20260905153051 86 37 0.0 2.0 0.00 0.00 0.00 60 1013.3
20260905151551 87 23 1.0 3.0 0.00 0.00 0.00 60 1013.3
20260905150050 87 310 0.0 4.0 0.00 0.00 0.00 60 1013.3
20260905144550 88 294 1.0 5.0 0.00 0.00 0.00 59 1013.2
20260905143050 88 325 2.0 6.0 0.00 0.00 0.00 58 1013.3
20260905141554 89 98 1.0 5.0 0.00 0.00 0.00 57 1013.2
20260905140050 90 321 1.0 6.0 0.00 0.00 0.00 57 1013.1
20260905134550 90 350 4.0 6.0 0.00 0.00 0.00 55 1013.1
20260905133047 91 61 2.0 6.0 0.00 0.00 0.00 55 1013.3
20260905131559 91 90 1.0 7.0 0.00 0.00 0.00 55 1013.2
20260905130045 90 302 3.0 9.0 0.00 0.00 0.00 55 1013.3